DateTimeUTC,F1_A11,F1_S11,BsB_S11,BsG_S11,BsR_S11,BbsB_S11,BbsG_S11,BbsR_S11,BaB_A11,BaG_A11,BaR_A11,Tu_S11,T_S11,Uu_S11,U_S11,P_S11,T1_A11
2021-04-22T09:00:00Z,00000200,21000000,,,,,,,-000.06,0000.02,0000.13,16.1,23.8,,00.0,0664.9,30.9
2021-04-22T09:01:00Z,00000200,21000000,,,,,,,-000.17,-000.22,-000.08,16.0,23.8,,00.0,0664.9,30.9
2021-04-22T09:02:00Z,00000200,21000000,,,,,,,0000.19,0000.30,0000.06,16.0,23.8,,00.0,0664.9,30.9
2021-04-22T09:03:00Z,00000200,61000000,,,,,,,0001.46,0001.02,0000.56,16.0,23.8,,00.0,0664.9,30.9
2021-04-22T09:04:00Z,00000200,41000000,0003.58,0002.25,0000.93,0000.74,0000.40,0000.02,0001.13,0000.91,0000.82,16.0,23.5,,00.0,0665.8,30.9
2021-04-22T09:05:00Z,00000200,01000000,0003.50,0001.91,0001.01,0000.98,0000.05,0000.05,0001.59,0001.15,0001.17,16.0,23.4,,00.0,0665.8,30.9
2021-04-22T09:06:00Z,00000200,01000000,0004.17,0002.04,0001.08,0000.47,0000.60,0000.39,0001.57,0001.63,0001.20,16.0,23.4,,00.0,0665.8,30.9
2021-04-22T09:07:00Z,00000200,01000000,0003.11,0001.87,0000.70,0000.55,0000.44,0000.04,0001.33,0001.62,0001.41,16.1,23.4,,00.0,0665.8,30.9
2021-04-22T09:08:00Z,00000200,01000000,0003.39,0002.34,0001.04,0000.46,0000.43,0000.17,0001.86,0001.62,0000.83,16.2,23.3,,00.0,0665.8,30.9
2021-04-22T09:09:00Z,00000200,01000000,0003.08,0001.83,0001.07,0000.21,0000.37,-000.04,0001.21,0001.28,0001.04,16.3,23.4,,00.0,0665.8,31.0
2021-04-22T09:10:00Z,00000200,01000000,0002.60,0001.95,0001.16,0000.94,0000.39,-000.17,0001.28,0001.49,0001.09,16.3,23.4,,00.0,0665.8,31.0
2021-04-22T09:11:00Z,00000200,01000000,0003.53,0002.11,0000.90,0000.93,0000.23,0000.17,0001.60,0001.04,0001.09,16.4,23.4,,00.0,0665.8,31.0
2021-04-22T09:12:00Z,00000200,01000000,0003.42,0001.98,0001.07,0000.62,0000.39,0000.12,0001.50,0001.03,0000.77,16.4,23.4,,00.0,0665.8,31.0
2021-04-22T09:13:00Z,00000200,01000000,0004.10,0001.79,0000.96,0000.81,0000.65,-000.07,0001.44,0001.56,0000.68,16.4,23.4,,00.0,0665.8,31.0
2021-04-22T09:14:00Z,00000200,01000000,0004.08,0001.95,0001.07,0000.51,0000.48,0000.28,0001.21,0001.01,0000.98,16.3,23.4,,00.0,0665.8,31.0
2021-04-22T09:15:00Z,00000200,01000000,0003.30,0002.13,0000.97,0000.13,0000.14,0000.22,0001.17,0001.23,0000.74,16.3,23.4,,00.0,0665.8,31.0
2021-04-22T09:16:00Z,00000200,01000000,0003.93,0002.03,0001.10,0000.25,0000.44,0000.35,0001.28,0000.88,0000.93,16.2,23.4,,00.0,0665.8,30.9
2021-04-22T09:17:00Z,00000200,01000000,0004.17,0002.19,0000.95,0000.66,0000.28,0000.04,0001.22,0001.39,0001.26,16.2,23.3,,00.0,0665.8,30.9
2021-04-22T09:18:00Z,00000200,01000000,0002.97,0001.98,0001.15,0000.88,0000.29,0000.14,0001.86,0001.57,0000.89,16.1,23.3,,00.0,0665.8,30.9
2021-04-22T09:19:00Z,00000200,01000000,0003.95,0002.27,0001.41,0000.69,0000.49,-000.01,0003.54,0003.27,0002.79,16.1,23.3,,00.0,0665.8,30.9
2021-04-22T09:20:00Z,00000200,01000000,0003.74,0002.16,0001.24,0000.91,0000.57,0000.15,0002.29,0002.44,0001.77,16.1,23.3,,00.0,0665.7,30.9
2021-04-22T09:21:00Z,00000200,01000000,0003.67,0002.11,0001.53,0000.75,0000.23,0000.39,0001.49,0000.74,0001.07,16.1,23.2,,00.0,0665.7,30.9
2021-04-22T09:22:00Z,00000200,01000000,0003.46,0002.28,0001.33,0000.63,0000.61,0000.30,0000.70,0001.00,0000.53,16.2,23.2,,00.0,0665.7,30.9
2021-04-22T09:23:00Z,00000200,01000000,0003.04,0001.87,0000.86,0000.64,0000.40,0000.17,0001.32,0001.26,0000.92,16.3,23.3,,00.0,0665.7,30.9
2021-04-22T09:24:00Z,00000200,01000000,0002.77,0002.06,0001.24,0000.18,0000.50,-000.10,0000.79,0000.72,0000.55,16.3,23.3,,00.0,0665.7,31.0
2021-04-22T09:25:00Z,00000200,01000000,0003.49,0002.06,0001.07,0000.62,0000.51,0000.10,0001.39,0001.46,0001.39,16.4,23.4,,00.0,0665.7,31.0
2021-04-22T09:26:00Z,00000200,01000000,0003.56,0001.90,0000.94,0000.61,0000.50,0000.39,0000.99,0000.45,0000.27,16.5,23.4,,00.0,0665.7,31.0
2021-04-22T09:27:00Z,00000200,01000000,0004.03,0002.25,0000.94,0000.51,0000.29,0000.01,0000.64,0001.19,0000.30,16.5,23.4,,00.0,0665.8,31.0
2021-04-22T09:28:00Z,00000200,01000000,0003.58,0001.85,0000.96,0000.49,0000.17,0000.28,0001.12,0000.95,0000.75,16.6,23.4,,00.0,0665.7,31.0
2021-04-22T09:29:00Z,00000200,01000000,0003.18,0002.06,0000.98,0000.71,0000.57,0000.03,0001.07,0000.64,0000.70,16.5,23.4,,00.0,0665.8,31.0
2021-04-22T09:30:00Z,00000200,01000000,0003.76,0002.07,0001.10,0000.45,0000.72,0000.06,0001.39,0001.25,0001.22,16.5,23.4,,00.0,0665.7,31.0
2021-04-22T09:31:00Z,00000200,01000000,0004.04,0001.94,0000.64,0000.79,0000.55,0000.34,0001.24,0001.02,0000.49,16.5,23.4,,00.0,0665.7,31.0
2021-04-22T09:32:00Z,00000200,01000000,0003.38,0002.05,0001.19,0000.52,0000.42,0000.17,0001.16,0001.50,0000.90,16.4,23.4,,00.0,0665.7,31.0
2021-04-22T09:33:00Z,00000200,01000000,0003.04,0001.85,0000.74,0000.58,0000.36,0000.11,0001.26,0000.89,0000.82,16.4,23.4,,00.0,0665.8,31.0
2021-04-22T09:34:00Z,00000200,01000000,0003.32,0001.83,0000.95,0000.90,0000.63,0000.16,0001.05,0001.00,0000.76,16.3,23.3,,00.0,0665.8,30.9
2021-04-22T09:35:00Z,00000200,01000000,0003.42,0002.11,0001.12,0001.08,0000.40,0000.01,0001.69,0001.02,0001.03,16.3,23.3,,00.0,0665.8,30.9
2021-04-22T09:36:00Z,00000200,01000000,0003.58,0002.04,0000.90,0000.35,0000.33,0000.27,0000.86,0000.95,0000.93,16.3,23.3,,00.0,0665.8,30.9
2021-04-22T09:37:00Z,00000200,01000000,0003.70,0001.62,0001.22,0000.69,0000.48,0000.32,0001.08,0001.06,0000.85,16.4,23.3,,00.0,0665.8,30.9
2021-04-22T09:38:00Z,00000200,01000000,0002.90,0001.89,0001.03,0000.26,0000.17,0000.03,0001.43,0001.39,0000.78,16.5,23.3,,00.0,0665.8,31.0
2021-04-22T09:39:00Z,00000200,01000000,0002.82,0001.87,0000.76,0000.99,0000.30,0000.02,0001.37,0001.42,0000.82,16.5,23.4,,00.0,0665.8,31.0
2021-04-22T09:40:00Z,00000200,01000000,0003.06,0002.08,0000.80,0000.67,0000.28,0000.03,0001.21,0000.88,0000.49,16.6,23.4,,00.0,0665.8,31.0
2021-04-22T09:41:00Z,00000200,01000000,0003.56,0001.73,0000.90,0000.01,0000.41,0000.19,0000.92,0001.22,0001.08,16.6,23.5,,00.0,0665.8,31.0
2021-04-22T09:42:00Z,00000200,01000000,0003.36,0002.01,0001.01,0000.33,0000.51,0000.07,0001.24,0000.85,0000.75,16.7,23.5,,00.0,0665.8,31.0
2021-04-22T09:43:00Z,00000200,01000000,0003.47,0001.71,0001.21,0000.48,0000.43,0000.14,0000.92,0000.85,0000.43,16.6,23.5,,00.0,0665.8,31.0
2021-04-22T09:44:00Z,00000200,01000000,0003.18,0002.03,0000.97,0000.57,0000.44,0000.14,0001.36,0001.01,0001.06,16.6,23.5,,00.0,0665.9,31.0
2021-04-22T09:45:00Z,00000200,01000000,0003.52,0001.45,0000.87,0000.49,0000.58,0000.02,0001.13,0001.08,0000.75,16.5,23.4,,00.0,0665.9,31.0
2021-04-22T09:46:00Z,00000200,01000000,0002.96,0001.97,0000.87,0000.32,0000.35,0000.39,0000.78,0000.94,0000.44,16.5,23.4,,00.0,0665.9,31.0
2021-04-22T09:47:00Z,00000200,01000000,0003.97,0001.65,0000.98,0000.62,0000.62,0000.26,0001.37,0000.94,0000.95,16.5,23.4,,00.0,0665.9,30.9
2021-04-22T09:48:00Z,00000200,01000000,0003.33,0002.09,0000.68,0000.61,0000.36,0000.40,0000.96,0000.84,0000.59,16.4,23.4,,00.0,0665.9,30.9
2021-04-22T09:49:00Z,00000200,01000000,0003.43,0001.62,0000.95,0000.70,0000.32,0000.37,0000.87,0000.88,0000.92,16.4,23.4,,00.0,0665.9,30.9
2021-04-22T09:50:00Z,00000200,01000000,0002.98,0001.98,0001.02,0000.62,0000.21,0000.16,0001.56,0001.46,0000.87,16.3,23.4,,00.0,0665.9,30.9
2021-04-22T09:51:00Z,00000200,01000000,0003.40,0002.14,0001.10,0000.44,0000.58,0000.21,0001.43,0000.88,0000.90,16.3,23.3,,00.0,0665.9,30.9
2021-04-22T09:52:00Z,00000200,01000000,0003.36,0001.94,0001.05,0000.79,0000.27,0000.04,0001.06,0001.55,0001.20,16.4,23.3,,00.0,0665.9,30.9
2021-04-22T09:53:00Z,00000200,01000000,0003.02,0002.13,0001.07,0000.22,0000.46,0000.10,0001.33,0000.98,0000.60,16.5,23.4,,00.0,0665.9,31.0
2021-04-22T09:54:00Z,00000200,01000000,0003.56,0002.08,0000.91,0000.34,0000.43,0000.21,0001.22,0000.82,0000.66,16.5,23.4,,00.0,0665.9,31.0
2021-04-22T09:55:00Z,00000200,01000000,0003.85,0001.65,0001.23,0000.77,0000.50,0000.38,0001.02,0001.31,0000.88,16.5,23.4,,00.0,0665.9,31.0
2021-04-22T09:56:00Z,00000200,01000000,0002.74,0002.07,0000.92,0000.49,0000.41,0000.12,0001.15,0000.77,0000.60,16.6,23.4,,00.0,0665.9,31.0
2021-04-22T09:57:00Z,00000200,41000000,,,,,,,-000.44,-000.32,-000.36,16.6,23.5,,00.0,0666.0,31.0
2021-04-22T09:58:00Z,00000200,61000000,,,,,,,0000.11,0000.28,0000.55,16.2,23.6,,00.0,0664.9,31.0
2021-04-22T09:59:00Z,00000200,21000000,,,,,,,0000.10,0000.25,0000.05,16.2,23.7,,00.0,0664.9,31.0
